When you browse on this site, cookies collect data to enhance your experience and personalize the content and advertising you see.
Visit our Privacy Policy to learn more. By continuing to use the site, you agree to this use of cookies and data.
  • In Hungary
  • List of Countries
  • For 7 days
  • Water Temperature
  • Satellite Maps
  • Weather Map
  • News
  • Weather Widgets
  • user-avatar
    Login

    Hourly Weather Trzesowice

    Today, 23 May, Thursday

    Time Temperature Precipitation Wind Pressure Humidity
    00:00 +11°C° 0.1 mm 6 mps 747 mmHg 95%
    01:00 +10°C° 0 mm 6 mps 747 mmHg 94%
    02:00 +10°C° 0.1 mm 6 mps 747 mmHg 94%
    03:00 +10°C° 0.1 mm 6 mps 747 mmHg 95%
    04:00 +10°C° 0.1 mm 6 mps 747 mmHg 95%
    05:00 +10°C° 0.1 mm 6 mps 748 mmHg 95%
    06:00 +9°C° 0.1 mm 6 mps 748 mmHg 94%
    07:00 +9°C° 0.1 mm 6 mps 748 mmHg 94%
    08:00 +9°C° 0.1 mm 6 mps 748 mmHg 94%
    09:00 +9°C° 0.1 mm 6 mps 749 mmHg 93%
    10:00 +10°C° 0.1 mm 6 mps 749 mmHg 93%
    11:00 +10°C° 0.1 mm 5 mps 749 mmHg 91%
    12:00 +10°C° 0.1 mm 5 mps 749 mmHg 89%
    13:00 +12°C° 0.1 mm 5 mps 749 mmHg 86%
    14:00 +13°C° 0 mm 5 mps 749 mmHg 82%
    15:00 +14°C° 0 mm 5 mps 749 mmHg 77%
    16:00 +14°C° 0 mm 5 mps 749 mmHg 72%
    17:00 +14°C° 0 mm 4 mps 749 mmHg 72%
    18:00 +14°C° 0 mm 3 mps 749 mmHg 73%
    19:00 +13°C° 0 mm 3 mps 749 mmHg 74%
    20:00 +13°C° 0 mm 2 mps 749 mmHg 76%
    21:00 +12°C° 0 mm 2 mps 750 mmHg 78%
    22:00 +10°C° 0 mm 2 mps 750 mmHg 80%
    23:00 +9°C° 0 mm 2 mps 750 mmHg 81%

    Tomorrow, 24 May, Friday

    Time Temperature Precipitation Wind Pressure Humidity
    00:00 +9°C° 0 mm 2 mps 750 mmHg 83%
    01:00 +8°C° 0 mm 2 mps 750 mmHg 84%
    02:00 +7°C° 0 mm 2 mps 750 mmHg 84%
    03:00 +7°C° 0 mm 2 mps 750 mmHg 84%
    04:00 +7°C° 0 mm 1 mps 750 mmHg 84%
    05:00 +8°C° 0 mm 2 mps 750 mmHg 79%
    06:00 +10°C° 0 mm 2 mps 750 mmHg 74%
    07:00 +12°C° 0 mm 2 mps 750 mmHg 69%
    08:00 +14°C° 0 mm 2 mps 750 mmHg 64%
    09:00 +16°C° 0 mm 2 mps 749 mmHg 59%
    10:00 +17°C° 0 mm 2 mps 749 mmHg 54%
    11:00 +18°C° 0 mm 2 mps 749 mmHg 51%
    12:00 +19°C° 0 mm 2 mps 749 mmHg 48%
    13:00 +20°C° 0 mm 2 mps 748 mmHg 45%
    14:00 +20°C° 0 mm 2 mps 748 mmHg 44%
    15:00 +21°C° 0 mm 1 mps 748 mmHg 44%
    16:00 +21°C° 0 mm 1 mps 747 mmHg 44%
    17:00 +20°C° 0 mm 1 mps 747 mmHg 49%
    18:00 +18°C° 0 mm 1 mps 747 mmHg 55%
    19:00 +15°C° 0 mm 0 mps 747 mmHg 60%
    20:00 +15°C° 0 mm 1 mps 747 mmHg 61%
    21:00 +14°C° 0 mm 1 mps 747 mmHg 61%
    22:00 +13°C° 0 mm 2 mps 747 mmHg 62%
    23:00 +12°C° 0 mm 2 mps 747 mmHg 63%

    Day after tomorrow, 25 May, Saturday

    Time Temperature Precipitation Wind Pressure Humidity
    00:00 +12°C° 0 mm 2 mps 747 mmHg 65%
    01:00 +10°C° 0 mm 2 mps 747 mmHg 67%
    02:00 +10°C° 0 mm 2 mps 747 mmHg 69%
    03:00 +10°C° 0 mm 2 mps 747 mmHg 72%
    04:00 +10°C° 0 mm 2 mps 746 mmHg 74%
    05:00 +13°C° 0 mm 2 mps 747 mmHg 76%
    06:00 +14°C° 0 mm 3 mps 747 mmHg 77%
    07:00 +16°C° 0 mm 3 mps 747 mmHg 79%
    08:00 +17°C° 0.1 mm 4 mps 747 mmHg 76%
    09:00 +18°C° 0.1 mm 4 mps 747 mmHg 74%
    10:00 +20°C° 0.1 mm 4 mps 747 mmHg 71%
    11:00 +20°C° 0.2 mm 4 mps 747 mmHg 65%
    12:00 +21°C° 0.2 mm 4 mps 747 mmHg 60%
    13:00 +21°C° 0.2 mm 5 mps 747 mmHg 55%
    14:00 +21°C° 0 mm 4 mps 747 mmHg 53%
    15:00 +21°C° 0 mm 4 mps 747 mmHg 52%
    16:00 +21°C° 0 mm 4 mps 746 mmHg 51%
    17:00 +20°C° 0 mm 3 mps 746 mmHg 58%
    18:00 +18°C° 0 mm 2 mps 746 mmHg 65%
    19:00 +17°C° 0 mm 2 mps 746 mmHg 71%
    20:00 +16°C° 0 mm 1 mps 747 mmHg 73%
    21:00 +15°C° 0 mm 1 mps 747 mmHg 75%
    22:00 +14°C° 0 mm 1 mps 747 mmHg 76%
    23:00 +13°C° 0 mm 2 mps 747 mmHg 80%

    26 May, Sunday

    Time Temperature Precipitation Wind Pressure Humidity
    00:00 +12°C° 0 mm 2 mps 747 mmHg 85%
    01:00 +10°C° 0 mm 3 mps 747 mmHg 89%
    02:00 +10°C° 0 mm 3 mps 747 mmHg 91%
    03:00 +9°C° 0 mm 3 mps 747 mmHg 94%
    04:00 +9°C° 0 mm 3 mps 747 mmHg 96%
    05:00 +10°C° 0 mm 3 mps 747 mmHg 90%
    06:00 +11°C° 0 mm 4 mps 747 mmHg 85%
    07:00 +12°C° 0 mm 4 mps 747 mmHg 79%
    08:00 +13°C° 0 mm 4 mps 746 mmHg 73%
    09:00 +15°C° 0 mm 4 mps 746 mmHg 67%
    10:00 +17°C° 0 mm 4 mps 746 mmHg 60%
    11:00 +18°C° 0 mm 4 mps 746 mmHg 58%
    12:00 +19°C° 0 mm 5 mps 746 mmHg 55%
    13:00 +20°C° 0 mm 5 mps 745 mmHg 53%
    14:00 +19°C° 0 mm 5 mps 745 mmHg 56%
    15:00 +19°C° 0 mm 5 mps 745 mmHg 59%
    16:00 +19°C° 0 mm 6 mps 745 mmHg 63%
    17:00 +18°C° 0 mm 4 mps 745 mmHg 67%
    18:00 +17°C° 0 mm 3 mps 745 mmHg 72%
    19:00 +16°C° 0 mm 2 mps 745 mmHg 77%
    20:00 +15°C° 0 mm 2 mps 745 mmHg 80%
    21:00 +14°C° 0 mm 2 mps 746 mmHg 83%
    22:00 +12°C° 0 mm 1 mps 746 mmHg 87%
    23:00 +12°C° 0 mm 2 mps 746 mmHg 87%

    27 May, Monday

    Time Temperature Precipitation Wind Pressure Humidity
    00:00 +12°C° 0 mm 2 mps 746 mmHg 87%
    01:00 +12°C° 0 mm 2 mps 746 mmHg 87%
    02:00 +12°C° 0 mm 2 mps 746 mmHg 87%
    03:00 +10°C° 0 mm 2 mps 745 mmHg 88%
    04:00 +10°C° 0 mm 2 mps 745 mmHg 88%
    05:00 +13°C° 0 mm 2 mps 745 mmHg 83%
    06:00 +15°C° 0 mm 2 mps 745 mmHg 78%
    07:00 +16°C° 0 mm 2 mps 744 mmHg 74%
    08:00 +18°C° 0 mm 3 mps 744 mmHg 68%
    09:00 +20°C° 0 mm 3 mps 744 mmHg 63%
    10:00 +21°C° 0 mm 4 mps 744 mmHg 58%
    11:00 +22°C° 0 mm 4 mps 743 mmHg 57%
    12:00 +23°C° 0 mm 4 mps 743 mmHg 55%
    13:00 +25°C° 0 mm 4 mps 742 mmHg 53%
    14:00 +25°C° 0 mm 4 mps 742 mmHg 55%
    15:00 +25°C° 0 mm 4 mps 742 mmHg 57%
    16:00 +25°C° 0 mm 5 mps 741 mmHg 58%
    17:00 +22°C° 0 mm 4 mps 741 mmHg 65%
    18:00 +21°C° 0 mm 3 mps 741 mmHg 72%
    19:00 +20°C° 0 mm 2 mps 740 mmHg 78%
    20:00 +19°C° 0 mm 2 mps 740 mmHg 82%
    21:00 +18°C° 0 mm 2 mps 740 mmHg 85%
    22:00 +16°C° 0 mm 2 mps 740 mmHg 88%
    23:00 +16°C° 0.5 mm 2 mps 740 mmHg 90%

    28 May, Tuesday

    Time Temperature Precipitation Wind Pressure Humidity
    00:00 +16°C° 0.5 mm 2 mps 739 mmHg 91%
    01:00 +15°C° 0.5 mm 2 mps 739 mmHg 92%
    02:00 +15°C° 0.7 mm 2 mps 739 mmHg 93%
    03:00 +15°C° 0.7 mm 2 mps 739 mmHg 94%
    04:00 +15°C° 0.7 mm 2 mps 738 mmHg 95%
    05:00 +15°C° 0.9 mm 2 mps 738 mmHg 94%
    06:00 +15°C° 0.9 mm 2 mps 738 mmHg 94%
    07:00 +15°C° 0.9 mm 1 mps 738 mmHg 94%
    08:00 +16°C° 0.8 mm 1 mps 738 mmHg 92%
    09:00 +18°C° 0.8 mm 1 mps 738 mmHg 90%
    10:00 +18°C° 0.8 mm 1 mps 738 mmHg 88%
    11:00 +19°C° 0.3 mm 1 mps 738 mmHg 83%
    12:00 +20°C° 0.3 mm 1 mps 738 mmHg 78%
    13:00 +19°C° 0.3 mm 0 mps 738 mmHg 72%
    14:00 +22°C° 0 mm 1 mps 738 mmHg 69%
    15:00 +22°C° 0 mm 1 mps 738 mmHg 66%
    16:00 +23°C° 0 mm 1 mps 738 mmHg 63%
    17:00 +22°C° 0 mm 1 mps 738 mmHg 68%
    18:00 +21°C° 0 mm 1 mps 738 mmHg 73%
    19:00 +19°C° 0 mm 2 mps 738 mmHg 78%
    20:00 +18°C° 0 mm 2 mps 738 mmHg 81%
    21:00 +17°C° 0 mm 2 mps 739 mmHg 83%
    22:00 +16°C° 0 mm 2 mps 739 mmHg 85%
    23:00 +16°C° 0.5 mm 2 mps 739 mmHg 88%
    Show more